Time,TemperatureF,DewpointF,PressureIn,WindDirection,WindDirectionDegrees,WindSpeedMPH,WindSpeedGustMPH,Humidity,HourlyPrecipIn,Conditions,Clouds,dailyrainin,SoftwareType,DateUTC
2013-04-15 01:00:00,24.0,-99.9,-100.00,NE,53,2.0,11.0,-999,0.01,,,-99.99,,2013-04-15 07:00:00,
2013-04-15 01:43:00,24.0,-99.9,-100.00,NE,53,2.0,11.0,-999,0.01,,,-99.99,,2013-04-15 07:43:00,
2013-04-15 01:54:00,24.0,-99.9,-100.00,NE,53,2.0,11.0,-999,0.01,,,-99.99,,2013-04-15 07:54:00,
2013-04-15 02:00:00,23.0,-99.9,-100.00,WSW,242,3.0,10.0,-999,0.02,,,-99.99,,2013-04-15 08:00:00,
2013-04-15 02:43:00,23.0,-99.9,-100.00,WSW,242,3.0,10.0,-999,0.02,,,-99.99,,2013-04-15 08:43:00,
2013-04-15 02:52:00,23.0,-99.9,-100.00,WSW,242,3.0,10.0,-999,0.02,,,-99.99,,2013-04-15 08:52:00,
2013-04-15 03:00:00,24.0,-99.9,-100.00,South,170,2.0,20.0,-999,0.02,,,-99.99,,2013-04-15 09:00:00,
2013-04-15 03:43:00,24.0,-99.9,-100.00,South,170,2.0,20.0,-999,0.02,,,-99.99,,2013-04-15 09:43:00,
2013-04-15 03:53:00,24.0,-99.9,-100.00,South,170,2.0,20.0,-999,0.02,,,-99.99,,2013-04-15 09:53:00,
2013-04-15 04:00:00,21.0,-99.9,-100.00,NW,304,4.0,17.0,-999,0.05,,,-99.99,,2013-04-15 10:00:00,
2013-04-15 04:42:00,21.0,-99.9,-100.00,NW,304,4.0,17.0,-999,0.05,,,-99.99,,2013-04-15 10:42:00,
2013-04-15 04:53:00,21.0,-99.9,-100.00,NW,304,4.0,17.0,-999,0.05,,,-99.99,,2013-04-15 10:53:00,
2013-04-15 05:00:00,22.0,-99.9,-100.00,NW,313,2.0,5.0,-999,0.06,,,-99.99,,2013-04-15 11:00:00,
2013-04-15 05:44:00,22.0,-99.9,-100.00,NW,313,2.0,5.0,-999,0.06,,,-99.99,,2013-04-15 11:44:00,
2013-04-15 05:54:00,22.0,-99.9,-100.00,NW,313,2.0,5.0,-999,0.06,,,-99.99,,2013-04-15 11:54:00,
2013-04-15 06:00:00,23.0,-99.9,-100.00,WNW,291,2.0,6.0,-999,0.09,,,-99.99,,2013-04-15 12:00:00,
2013-04-15 06:44:00,23.0,-99.9,-100.00,WNW,291,2.0,6.0,-999,0.09,,,-99.99,,2013-04-15 12:44:00,
2013-04-15 06:54:00,23.0,-99.9,-100.00,WNW,291,2.0,6.0,-999,0.09,,,-99.99,,2013-04-15 12:54:00,
2013-04-15 07:00:00,23.0,-99.9,-100.00,NW,304,1.0,5.0,-999,0.07,,,-99.99,,2013-04-15 13:00:00,
2013-04-15 07:34:00,23.0,-99.9,-100.00,NW,304,1.0,5.0,-999,0.07,,,-99.99,,2013-04-15 13:34:00,
2013-04-15 07:44:00,23.0,-99.9,-100.00,NW,304,1.0,5.0,-999,0.07,,,-99.99,,2013-04-15 13:44:00,
2013-04-15 07:54:00,23.0,-99.9,-100.00,NW,304,1.0,5.0,-999,0.07,,,-99.99,,2013-04-15 13:54:00,
2013-04-15 08:00:00,25.0,-99.9,-100.00,WNW,298,2.0,6.0,-999,0.05,,,-99.99,,2013-04-15 14:00:00,
2013-04-15 08:34:00,25.0,-99.9,-100.00,WNW,298,2.0,6.0,-999,0.05,,,-99.99,,2013-04-15 14:34:00,
2013-04-15 08:45:00,25.0,-99.9,-100.00,WNW,298,2.0,6.0,-999,0.05,,,-99.99,,2013-04-15 14:45:00,
2013-04-15 08:55:00,25.0,-99.9,-100.00,WNW,298,2.0,6.0,-999,0.05,,,-99.99,,2013-04-15 14:55:00,
2013-04-15 09:00:00,26.0,-99.9,-100.00,WNW,303,5.0,13.0,-999,0.03,,,-99.99,,2013-04-15 15:00:00,
2013-04-15 09:45:00,26.0,-99.9,-100.00,WNW,303,5.0,13.0,-999,0.03,,,-99.99,,2013-04-15 15:45:00,
2013-04-15 09:55:00,26.0,-99.9,-100.00,WNW,303,5.0,13.0,-999,0.03,,,-99.99,,2013-04-15 15:55:00,
2013-04-15 10:00:00,27.0,-99.9,-100.00,NW,305,6.0,15.0,-999,0.02,,,-99.99,,2013-04-15 16:00:00,
2013-04-15 10:45:00,27.0,-99.9,-100.00,NW,305,6.0,15.0,-999,0.02,,,-99.99,,2013-04-15 16:45:00,
2013-04-15 10:55:00,27.0,-99.9,-100.00,NW,305,6.0,15.0,-999,0.02,,,-99.99,,2013-04-15 16:55:00,
2013-04-15 11:00:00,29.0,-99.9,-100.00,WNW,295,7.0,15.0,-999,0.00,,,-99.99,,2013-04-15 17:00:00,
2013-04-15 11:33:00,29.0,-99.9,-100.00,WNW,295,7.0,15.0,-999,0.00,,,-99.99,,2013-04-15 17:33:00,
2013-04-15 11:44:00,29.0,-99.9,-100.00,WNW,295,7.0,15.0,-999,0.00,,,-99.99,,2013-04-15 17:44:00,
2013-04-15 11:53:00,29.0,-99.9,-100.00,WNW,295,7.0,15.0,-999,0.00,,,-99.99,,2013-04-15 17:53:00,
2013-04-15 12:00:00,30.0,-99.9,-100.00,West,280,6.0,14.0,-999,0.00,,,-99.99,,2013-04-15 18:00:00,
2013-04-15 12:33:00,30.0,-99.9,-100.00,West,280,6.0,14.0,-999,0.00,,,-99.99,,2013-04-15 18:33:00,
2013-04-15 12:42:00,30.0,-99.9,-100.00,West,280,6.0,14.0,-999,0.00,,,-99.99,,2013-04-15 18:42:00,
2013-04-15 12:52:00,30.0,-99.9,-100.00,West,280,6.0,14.0,-999,0.00,,,-99.99,,2013-04-15 18:52:00,
2013-04-15 13:00:00,28.0,-99.9,-100.00,WNW,295,6.0,14.0,-999,0.02,,,-99.99,,2013-04-15 19:00:00,
2013-04-15 13:40:00,28.0,-99.9,-100.00,WNW,295,6.0,14.0,-999,0.02,,,-99.99,,2013-04-15 19:40:00,
2013-04-15 13:59:00,28.0,-99.9,-100.00,WNW,295,6.0,14.0,-999,0.02,,,-99.99,,2013-04-15 19:59:00,
2013-04-15 14:00:00,30.0,-99.9,-100.00,WNW,298,5.0,12.0,-999,0.04,,,-99.99,,2013-04-15 20:00:00,
2013-04-15 14:32:00,30.0,-99.9,-100.00,WNW,298,5.0,12.0,-999,0.04,,,-99.99,,2013-04-15 20:32:00,
2013-04-15 14:42:00,30.0,-99.9,-100.00,WNW,298,5.0,12.0,-999,0.04,,,-99.99,,2013-04-15 20:42:00,
2013-04-15 14:52:00,30.0,-99.9,-100.00,WNW,298,5.0,12.0,-999,0.04,,,-99.99,,2013-04-15 20:52:00,
2013-04-15 15:00:00,33.0,-99.9,-100.00,West,279,4.0,10.0,-999,0.00,,,-99.99,,2013-04-15 21:00:00,
2013-04-15 15:33:00,33.0,-99.9,-100.00,West,279,4.0,10.0,-999,0.00,,,-99.99,,2013-04-15 21:33:00,
2013-04-15 15:43:00,33.0,-99.9,-100.00,West,279,4.0,10.0,-999,0.00,,,-99.99,,2013-04-15 21:43:00,
2013-04-15 15:53:00,33.0,-99.9,-100.00,West,279,4.0,10.0,-999,0.00,,,-99.99,,2013-04-15 21:53:00,
2013-04-15 16:00:00,34.0,-99.9,-100.00,WNW,283,4.0,11.0,-999,0.00,,,-99.99,,2013-04-15 22:00:00,
2013-04-15 16:33:00,34.0,-99.9,-100.00,WNW,283,4.0,11.0,-999,0.00,,,-99.99,,2013-04-15 22:33:00,
2013-04-15 16:42:00,34.0,-99.9,-100.00,WNW,283,4.0,11.0,-999,0.00,,,-99.99,,2013-04-15 22:42:00,
2013-04-15 16:52:00,34.0,-99.9,-100.00,WNW,283,4.0,11.0,-999,0.00,,,-99.99,,2013-04-15 22:52:00,
2013-04-15 17:00:00,34.0,-99.9,-100.00,West,277,5.0,13.0,-999,0.00,,,-99.99,,2013-04-15 23:00:00,
2013-04-15 17:32:00,34.0,-99.9,-100.00,West,277,5.0,13.0,-999,0.00,,,-99.99,,2013-04-15 23:32:00,
2013-04-15 17:42:00,34.0,-99.9,-100.00,West,277,5.0,13.0,-999,0.00,,,-99.99,,2013-04-15 23:42:00,
2013-04-15 17:52:00,34.0,-99.9,-100.00,West,277,5.0,13.0,-999,0.00,,,-99.99,,2013-04-15 23:52:00,
2013-04-15 19:00:00,31.0,-99.9,-100.00,West,271,2.0,7.0,-999,0.00,,,-99.99,,2013-04-16 01:00:00,
2013-04-15 19:32:00,31.0,-99.9,-100.00,West,271,2.0,7.0,-999,0.00,,,-99.99,,2013-04-16 01:32:00,
2013-04-15 19:42:00,31.0,-99.9,-100.00,West,271,2.0,7.0,-999,0.00,,,-99.99,,2013-04-16 01:42:00,
2013-04-15 19:52:00,31.0,-99.9,-100.00,West,271,2.0,7.0,-999,0.00,,,-99.99,,2013-04-16 01:52:00,
2013-04-15 20:00:00,26.0,-99.9,-100.00,SSE,151,3.0,7.0,-999,0.00,,,-99.99,,2013-04-16 02:00:00,
2013-04-15 20:32:00,26.0,-99.9,-100.00,SSE,151,3.0,7.0,-999,0.00,,,-99.99,,2013-04-16 02:32:00,
2013-04-15 20:42:00,26.0,-99.9,-100.00,SSE,151,3.0,7.0,-999,0.00,,,-99.99,,2013-04-16 02:42:00,
2013-04-15 20:52:00,26.0,-99.9,-100.00,SSE,151,3.0,7.0,-999,0.00,,,-99.99,,2013-04-16 02:52:00,
2013-04-15 21:00:00,24.0,-99.9,-100.00,SE,134,3.0,7.0,-999,0.00,,,-99.99,,2013-04-16 03:00:00,
2013-04-15 21:33:00,24.0,-99.9,-100.00,SE,134,3.0,7.0,-999,0.00,,,-99.99,,2013-04-16 03:33:00,
2013-04-15 21:43:00,24.0,-99.9,-100.00,SE,134,3.0,7.0,-999,0.00,,,-99.99,,2013-04-16 03:43:00,
2013-04-15 21:53:00,24.0,-99.9,-100.00,SE,134,3.0,7.0,-999,0.00,,,-99.99,,2013-04-16 03:53:00,
2013-04-15 22:00:00,24.0,-99.9,-100.00,SE,134,3.0,7.0,-999,0.00,,,-99.99,,2013-04-16 04:00:00,
2013-04-15 22:33:00,24.0,-99.9,-100.00,SE,134,3.0,7.0,-999,0.00,,,-99.99,,2013-04-16 04:33:00,
2013-04-15 22:42:00,24.0,-99.9,-100.00,SE,134,3.0,7.0,-999,0.00,,,-99.99,,2013-04-16 04:42:00,
2013-04-15 22:53:00,24.0,-99.9,-100.00,SE,134,3.0,7.0,-999,0.00,,,-99.99,,2013-04-16 04:53:00,
2013-04-15 23:00:00,24.0,-99.9,-100.00,SE,125,3.0,8.0,-999,0.00,,,-99.99,,2013-04-16 05:00:00,
2013-04-15 23:32:00,24.0,-99.9,-100.00,SE,125,3.0,8.0,-999,0.00,,,-99.99,,2013-04-16 05:32:00,
2013-04-15 23:43:00,24.0,-99.9,-100.00,SE,125,3.0,8.0,-999,0.00,,,-99.99,,2013-04-16 05:43:00,
2013-04-15 23:52:00,24.0,-99.9,-100.00,SE,125,3.0,8.0,-999,0.00,,,-99.99,,2013-04-16 05:52:00,